Year,Month,Day,Hour,Minute,Value (Times are PST for temperature in C)
2008,05,29,00,00,12.30
2008,05,29,00,01,12.30
2008,05,29,00,02,12.20
2008,05,29,00,03,12.20
2008,05,29,00,04,12.20
2008,05,29,00,05,12.20
2008,05,29,00,06,12.10
2008,05,29,00,07,12.10
2008,05,29,00,08,12.00
2008,05,29,00,09,12.00
2008,05,29,00,10,12.00
2008,05,29,00,11,11.90
2008,05,29,00,12,11.90
2008,05,29,00,13,11.90
2008,05,29,00,14,11.90
2008,05,29,00,15,11.90
2008,05,29,00,16,11.90
2008,05,29,00,17,11.90
2008,05,29,00,18,11.90
2008,05,29,00,19,11.90
2008,05,29,00,20,11.90
2008,05,29,00,21,11.80
2008,05,29,00,22,11.80
2008,05,29,00,23,11.80
2008,05,29,00,24,11.80
2008,05,29,00,25,11.70
2008,05,29,00,26,11.70
2008,05,29,00,27,11.70
2008,05,29,00,28,11.70
2008,05,29,00,29,11.70
2008,05,29,00,30,11.70
2008,05,29,00,31,11.70
2008,05,29,00,32,11.70
2008,05,29,00,33,11.60
2008,05,29,00,34,11.60
2008,05,29,00,35,11.60
2008,05,29,00,36,11.60
2008,05,29,00,37,11.60
2008,05,29,00,38,11.50
2008,05,29,00,39,11.50
2008,05,29,00,40,11.50
2008,05,29,00,41,11.50
2008,05,29,00,42,11.40
2008,05,29,00,43,11.40
2008,05,29,00,44,11.40
2008,05,29,00,45,11.40
2008,05,29,00,46,11.40
2008,05,29,00,47,11.40
2008,05,29,00,48,11.30
2008,05,29,00,49,11.30
2008,05,29,00,50,11.30
2008,05,29,00,51,11.30
2008,05,29,00,52,11.30
2008,05,29,00,53,11.30
2008,05,29,00,54,11.20
2008,05,29,00,55,11.20
2008,05,29,00,56,11.20
2008,05,29,00,57,11.20
2008,05,29,00,58,11.20
2008,05,29,00,59,11.20
2008,05,29,01,00,11.10
2008,05,29,01,01,11.10
2008,05,29,01,02,11.10
2008,05,29,01,03,11.10
2008,05,29,01,04,11.10
2008,05,29,01,05,11.10
2008,05,29,01,06,11.10
2008,05,29,01,07,11.00
2008,05,29,01,08,11.00
2008,05,29,01,09,11.00
2008,05,29,01,10,11.00
2008,05,29,01,11,11.00
2008,05,29,01,12,11.00
2008,05,29,01,13,10.90
2008,05,29,01,14,10.90
2008,05,29,01,15,10.90
2008,05,29,01,16,10.90
2008,05,29,01,17,10.90
2008,05,29,01,18,10.90
2008,05,29,01,19,10.90
2008,05,29,01,20,10.90
2008,05,29,01,21,10.90
2008,05,29,01,22,10.80
2008,05,29,01,23,10.80
2008,05,29,01,24,10.80
2008,05,29,01,25,10.80
2008,05,29,01,26,10.80
2008,05,29,01,27,10.80
2008,05,29,01,28,10.70
2008,05,29,01,29,10.70
2008,05,29,01,30,10.70
2008,05,29,01,31,10.70
2008,05,29,01,32,10.80
2008,05,29,01,33,10.80
2008,05,29,01,34,10.80
2008,05,29,01,35,10.70
2008,05,29,01,36,10.70
2008,05,29,01,37,10.70
2008,05,29,01,38,10.70
2008,05,29,01,39,10.70
2008,05,29,01,40,10.70
2008,05,29,01,41,10.60
2008,05,29,01,42,10.60
2008,05,29,01,43,10.60
2008,05,29,01,44,10.60
2008,05,29,01,45,10.60
2008,05,29,01,46,10.60
2008,05,29,01,47,10.60
2008,05,29,01,48,10.60
2008,05,29,01,49,10.50
2008,05,29,01,50,10.50
2008,05,29,01,51,10.40
2008,05,29,01,52,10.40
2008,05,29,01,53,10.40
2008,05,29,01,54,10.40
2008,05,29,01,55,10.40
2008,05,29,01,56,10.40
2008,05,29,01,57,10.40
2008,05,29,01,58,10.40
2008,05,29,01,59,10.40
2008,05,29,02,00,10.40
2008,05,29,02,01,10.50
2008,05,29,02,02,10.40
2008,05,29,02,03,10.40
2008,05,29,02,04,10.30
2008,05,29,02,05,10.30
2008,05,29,02,06,10.30
2008,05,29,02,07,10.20
2008,05,29,02,08,10.20
2008,05,29,02,09,10.20
2008,05,29,02,10,10.10
2008,05,29,02,11,10.10
2008,05,29,02,12,10.00
2008,05,29,02,13,10.00
2008,05,29,02,14,10.00
2008,05,29,02,15,9.90
2008,05,29,02,16,9.90
2008,05,29,02,17,9.90
2008,05,29,02,18,9.90
2008,05,29,02,19,9.90
2008,05,29,02,20,9.90
2008,05,29,02,21,9.80
2008,05,29,02,22,9.80
2008,05,29,02,23,9.80
2008,05,29,02,24,9.80
2008,05,29,02,25,9.80
2008,05,29,02,26,9.80
2008,05,29,02,27,9.80
2008,05,29,02,28,9.80
2008,05,29,02,29,9.90
2008,05,29,02,30,9.90
2008,05,29,02,31,9.90
2008,05,29,02,32,9.90
2008,05,29,02,33,9.90
2008,05,29,02,34,9.80
2008,05,29,02,35,9.80
2008,05,29,02,36,9.80
2008,05,29,02,37,9.80
2008,05,29,02,38,9.70
2008,05,29,02,39,9.70
2008,05,29,02,40,9.70
2008,05,29,02,41,9.70
2008,05,29,02,42,9.70
2008,05,29,02,43,9.60
2008,05,29,02,44,9.60
2008,05,29,02,45,9.60
2008,05,29,02,46,9.60
2008,05,29,02,47,9.60
2008,05,29,02,48,9.50
2008,05,29,02,49,9.50
2008,05,29,02,50,9.40
2008,05,29,02,51,9.40
2008,05,29,02,52,9.40
2008,05,29,02,53,9.30
2008,05,29,02,54,9.30
2008,05,29,02,55,9.30
2008,05,29,02,56,9.30
2008,05,29,02,57,9.30
2008,05,29,02,58,9.30
2008,05,29,02,59,9.20
2008,05,29,03,00,9.20
2008,05,29,03,01,9.20
2008,05,29,03,02,9.20
2008,05,29,03,03,9.20
2008,05,29,03,04,9.20
2008,05,29,03,05,9.20
2008,05,29,03,06,9.20
2008,05,29,03,07,9.10
2008,05,29,03,08,9.10
2008,05,29,03,09,9.10
2008,05,29,03,10,9.10
2008,05,29,03,11,9.10
2008,05,29,03,12,9.10
2008,05,29,03,13,9.00
2008,05,29,03,14,9.00
2008,05,29,03,15,9.00
2008,05,29,03,16,8.90
2008,05,29,03,17,8.90
2008,05,29,03,18,8.90
2008,05,29,03,19,8.90
2008,05,29,03,20,8.80
2008,05,29,03,21,8.80
2008,05,29,03,22,8.80
2008,05,29,03,23,8.80
2008,05,29,03,24,8.70
2008,05,29,03,25,8.70
2008,05,29,03,26,8.70
2008,05,29,03,27,8.70
2008,05,29,03,28,8.60
2008,05,29,03,29,8.60
2008,05,29,03,30,8.60
2008,05,29,03,31,8.60
2008,05,29,03,32,8.60
2008,05,29,03,33,8.60
2008,05,29,03,34,8.60
2008,05,29,03,35,8.50
2008,05,29,03,36,8.50
2008,05,29,03,37,8.50
2008,05,29,03,38,8.50
2008,05,29,03,39,8.40
2008,05,29,03,40,8.40
2008,05,29,03,41,8.50
2008,05,29,03,42,8.50
2008,05,29,03,43,8.60
2008,05,29,03,44,8.60
2008,05,29,03,45,8.60
2008,05,29,03,46,8.60
2008,05,29,03,47,8.60
2008,05,29,03,48,8.60
2008,05,29,03,49,8.60
2008,05,29,03,50,8.60
2008,05,29,03,51,8.60
2008,05,29,03,52,8.60
2008,05,29,03,53,8.60
2008,05,29,03,54,8.60
2008,05,29,03,55,8.60
2008,05,29,03,56,8.60
2008,05,29,03,57,8.60
2008,05,29,03,58,8.60
2008,05,29,03,59,8.60
2008,05,29,04,00,8.60
2008,05,29,04,01,8.60
2008,05,29,04,02,8.60
2008,05,29,04,03,8.50
2008,05,29,04,04,8.50
2008,05,29,04,05,8.50
2008,05,29,04,06,8.40
2008,05,29,04,07,8.40
2008,05,29,04,08,8.40
2008,05,29,04,09,8.30
2008,05,29,04,10,8.30
2008,05,29,04,11,8.30
2008,05,29,04,12,8.30
2008,05,29,04,13,8.20
2008,05,29,04,14,8.20
2008,05,29,04,15,8.20
2008,05,29,04,16,8.20
2008,05,29,04,17,8.10
2008,05,29,04,18,8.10
2008,05,29,04,19,8.10
2008,05,29,04,20,8.00
2008,05,29,04,21,8.00
2008,05,29,04,22,8.00
2008,05,29,04,23,7.90
2008,05,29,04,24,7.90
2008,05,29,04,25,7.80
2008,05,29,04,26,7.80
2008,05,29,04,27,7.70
2008,05,29,04,28,7.70
2008,05,29,04,29,7.60
2008,05,29,04,30,7.60
2008,05,29,04,31,7.60
2008,05,29,04,32,7.50
2008,05,29,04,33,7.50
2008,05,29,04,34,7.40
2008,05,29,04,35,7.40
2008,05,29,04,36,7.40
2008,05,29,04,37,7.40
2008,05,29,04,38,7.30
2008,05,29,04,39,7.30
2008,05,29,04,40,7.20
2008,05,29,04,41,7.20
2008,05,29,04,42,7.20
2008,05,29,04,43,7.10
2008,05,29,04,44,7.10
2008,05,29,04,45,7.00
2008,05,29,04,46,7.00
2008,05,29,04,47,7.00
2008,05,29,04,48,6.90
2008,05,29,04,49,6.90
2008,05,29,04,50,6.80
2008,05,29,04,51,6.80
2008,05,29,04,52,6.80
2008,05,29,04,53,6.70
2008,05,29,04,54,6.60
2008,05,29,04,55,6.60
2008,05,29,04,56,6.50
2008,05,29,04,57,6.50
2008,05,29,04,58,6.40
2008,05,29,04,59,6.40
2008,05,29,05,00,6.30
2008,05,29,05,01,6.30
2008,05,29,05,02,6.30
2008,05,29,05,03,6.30
2008,05,29,05,04,6.30
2008,05,29,05,05,6.20
2008,05,29,05,06,6.20
2008,05,29,05,07,6.20
2008,05,29,05,08,6.20
2008,05,29,05,09,6.20
2008,05,29,05,10,6.20
2008,05,29,05,11,6.10
2008,05,29,05,12,6.10
2008,05,29,05,13,6.10
2008,05,29,05,14,6.10
2008,05,29,05,15,6.10
2008,05,29,05,16,6.10
2008,05,29,05,17,6.10
2008,05,29,05,18,6.10
2008,05,29,05,19,6.10
2008,05,29,05,20,6.10
2008,05,29,05,21,6.10
2008,05,29,05,22,6.10
2008,05,29,05,23,6.20
2008,05,29,05,24,6.20
2008,05,29,05,25,6.20
2008,05,29,05,26,6.30
2008,05,29,05,27,6.30
2008,05,29,05,28,6.30
2008,05,29,05,29,6.30
2008,05,29,05,30,6.30
2008,05,29,05,31,6.30
2008,05,29,05,32,6.30
2008,05,29,05,33,6.30
2008,05,29,05,34,6.30
2008,05,29,05,35,6.30
2008,05,29,05,36,6.30
2008,05,29,05,37,6.30
2008,05,29,05,38,6.30
2008,05,29,05,39,6.30
2008,05,29,05,40,6.30
2008,05,29,05,41,6.30
2008,05,29,05,42,6.30
2008,05,29,05,43,6.30
2008,05,29,05,44,6.30
2008,05,29,05,45,6.40
2008,05,29,05,46,6.40
2008,05,29,05,47,6.40
2008,05,29,05,48,6.50
2008,05,29,05,49,6.60
2008,05,29,05,50,6.60
2008,05,29,05,51,6.60
2008,05,29,05,52,6.70
2008,05,29,05,53,6.70
2008,05,29,05,54,6.80
2008,05,29,05,55,6.80
2008,05,29,05,56,6.80
2008,05,29,05,57,6.80
2008,05,29,05,58,6.80
2008,05,29,05,59,6.80
2008,05,29,06,00,6.80
2008,05,29,06,01,6.90
2008,05,29,06,02,6.90
2008,05,29,06,03,6.90
2008,05,29,06,04,6.90
2008,05,29,06,05,6.90
2008,05,29,06,06,6.90
2008,05,29,06,07,6.90
2008,05,29,06,08,6.90
2008,05,29,06,09,6.90
2008,05,29,06,10,7.00
2008,05,29,06,11,7.00
2008,05,29,06,12,7.10
2008,05,29,06,13,7.10
2008,05,29,06,14,7.10
2008,05,29,06,15,7.20
2008,05,29,06,16,7.20
2008,05,29,06,17,7.20
2008,05,29,06,18,7.20
2008,05,29,06,19,7.20
2008,05,29,06,20,7.30
2008,05,29,06,21,7.30
2008,05,29,06,22,7.30
2008,05,29,06,23,7.40
2008,05,29,06,24,7.40
2008,05,29,06,25,7.50
2008,05,29,06,26,7.50
2008,05,29,06,27,7.50
2008,05,29,06,28,7.60
2008,05,29,06,29,7.60
2008,05,29,06,30,7.60
2008,05,29,06,31,7.70
2008,05,29,06,32,7.70
2008,05,29,06,33,7.70
2008,05,29,06,34,7.70
2008,05,29,06,35,7.70
2008,05,29,06,36,7.80
2008,05,29,06,37,7.80
2008,05,29,06,38,7.80
2008,05,29,06,39,7.80
2008,05,29,06,40,7.80
2008,05,29,06,41,7.80
2008,05,29,06,42,7.80
2008,05,29,06,43,7.90
2008,05,29,06,44,7.90
2008,05,29,06,45,7.90
2008,05,29,06,46,8.00
2008,05,29,06,47,8.00
2008,05,29,06,48,8.10
2008,05,29,06,49,8.10
2008,05,29,06,50,8.10
2008,05,29,06,51,8.20
2008,05,29,06,52,8.20
2008,05,29,06,53,8.20
2008,05,29,06,54,8.30
2008,05,29,06,55,8.30
2008,05,29,06,56,8.30
2008,05,29,06,57,8.30
2008,05,29,06,58,8.30
2008,05,29,06,59,8.40
2008,05,29,07,00,8.40
2008,05,29,07,01,8.40
2008,05,29,07,02,8.40
2008,05,29,07,03,8.40
2008,05,29,07,04,8.50
2008,05,29,07,05,8.50
2008,05,29,07,06,8.60
2008,05,29,07,07,8.60
2008,05,29,07,08,8.60
2008,05,29,07,09,8.60
2008,05,29,07,10,8.70
2008,05,29,07,11,8.70
2008,05,29,07,12,8.70
2008,05,29,07,13,8.70
2008,05,29,07,14,8.70
2008,05,29,07,15,8.80
2008,05,29,07,16,8.80
2008,05,29,07,17,8.80
2008,05,29,07,18,8.80
2008,05,29,07,19,8.90
2008,05,29,07,20,8.90
2008,05,29,07,21,8.90
2008,05,29,07,22,9.00
2008,05,29,07,23,9.00
2008,05,29,07,24,9.00
2008,05,29,07,25,9.10
2008,05,29,07,26,9.10
2008,05,29,07,27,9.10
2008,05,29,07,28,9.10
2008,05,29,07,29,9.10
2008,05,29,07,30,9.20
2008,05,29,07,31,9.20
2008,05,29,07,32,9.10
2008,05,29,07,33,9.10
2008,05,29,07,34,9.20
2008,05,29,07,35,9.20
2008,05,29,07,36,9.20
2008,05,29,07,37,9.30
2008,05,29,07,38,9.30
2008,05,29,07,39,9.30
2008,05,29,07,40,9.30
2008,05,29,07,41,9.30
2008,05,29,07,42,9.40
2008,05,29,07,43,9.40
2008,05,29,07,44,9.40
2008,05,29,07,45,9.40
2008,05,29,07,46,9.40
2008,05,29,07,47,9.40
2008,05,29,07,48,9.40
2008,05,29,07,49,9.50
2008,05,29,07,50,9.50
2008,05,29,07,51,9.60
2008,05,29,07,52,9.60
2008,05,29,07,53,9.70
2008,05,29,07,54,9.70
2008,05,29,07,55,9.70
2008,05,29,07,56,9.70
2008,05,29,07,57,9.70
2008,05,29,07,58,9.80
2008,05,29,07,59,9.80
2008,05,29,08,00,9.80
2008,05,29,08,01,9.90
2008,05,29,08,02,9.90
2008,05,29,08,03,9.90
2008,05,29,08,04,9.90
2008,05,29,08,05,9.90
2008,05,29,08,06,10.00
2008,05,29,08,07,10.00
2008,05,29,08,08,10.00
2008,05,29,08,09,10.10
2008,05,29,08,10,10.10
2008,05,29,08,11,10.10
2008,05,29,08,12,10.10
2008,05,29,08,13,10.10
2008,05,29,08,14,10.20
2008,05,29,08,15,10.20
2008,05,29,08,16,10.20
2008,05,29,08,17,10.20
2008,05,29,08,18,10.20
2008,05,29,08,19,10.20
2008,05,29,08,20,10.30
2008,05,29,08,21,10.30
2008,05,29,08,22,10.30
2008,05,29,08,23,10.30
2008,05,29,08,24,10.40
2008,05,29,08,25,10.40
2008,05,29,08,26,10.40
2008,05,29,08,27,10.40
2008,05,29,08,28,10.50
2008,05,29,08,29,10.60
2008,05,29,08,30,10.60
2008,05,29,08,31,10.70
2008,05,29,08,32,10.70
2008,05,29,08,33,10.80
2008,05,29,08,34,10.80
2008,05,29,08,35,10.70
2008,05,29,08,36,10.70
2008,05,29,08,37,10.70
2008,05,29,08,38,10.80
2008,05,29,08,39,10.80
2008,05,29,08,40,10.90
2008,05,29,08,41,10.90
2008,05,29,08,42,10.90
2008,05,29,08,43,10.80
2008,05,29,08,44,10.80
2008,05,29,08,45,10.80
2008,05,29,08,46,10.80
2008,05,29,08,47,10.80
2008,05,29,08,48,10.80
2008,05,29,08,49,10.90
2008,05,29,08,50,10.80
2008,05,29,08,51,10.80
2008,05,29,08,52,10.80
2008,05,29,08,53,10.80
2008,05,29,08,54,10.90
2008,05,29,08,55,10.90
2008,05,29,08,56,10.90
2008,05,29,08,57,11.00
2008,05,29,08,58,11.00
2008,05,29,08,59,11.10
2008,05,29,09,00,11.10
2008,05,29,09,01,11.20
2008,05,29,09,02,11.30
2008,05,29,09,03,11.30
2008,05,29,09,04,11.30
2008,05,29,09,05,11.30
2008,05,29,09,06,11.30
2008,05,29,09,07,11.50
2008,05,29,09,08,11.50
2008,05,29,09,09,11.70
2008,05,29,09,10,11.80
2008,05,29,09,11,11.90
2008,05,29,09,12,11.90
2008,05,29,09,13,11.90
2008,05,29,09,14,11.90
2008,05,29,09,15,11.80
2008,05,29,09,16,11.60
2008,05,29,09,17,11.60
2008,05,29,09,18,11.50
2008,05,29,09,19,11.50
2008,05,29,09,20,11.60
2008,05,29,09,21,11.60
2008,05,29,09,22,11.70
2008,05,29,09,23,11.80
2008,05,29,09,24,11.90
2008,05,29,09,25,12.00
2008,05,29,09,26,12.10
2008,05,29,09,27,12.10
2008,05,29,09,28,12.20
2008,05,29,09,29,12.10
2008,05,29,09,30,12.10
2008,05,29,09,31,12.00
2008,05,29,09,32,11.90
2008,05,29,09,33,11.90
2008,05,29,09,34,11.90
2008,05,29,09,35,12.00
2008,05,29,09,36,12.00
2008,05,29,09,37,11.90
2008,05,29,09,38,11.90
2008,05,29,09,39,11.90
2008,05,29,09,40,11.90
2008,05,29,09,41,12.00
2008,05,29,09,42,12.10
2008,05,29,09,43,12.20
2008,05,29,09,44,12.20
2008,05,29,09,45,12.30
2008,05,29,09,46,12.50
2008,05,29,09,47,12.60
2008,05,29,09,48,12.80
2008,05,29,09,49,12.80
2008,05,29,09,50,12.80
2008,05,29,09,51,12.70
2008,05,29,09,52,12.70
2008,05,29,09,53,12.70
2008,05,29,09,54,12.70
2008,05,29,09,55,12.70
2008,05,29,09,56,12.70
2008,05,29,09,57,12.70
2008,05,29,09,58,12.70
2008,05,29,09,59,12.80
2008,05,29,10,00,12.90
2008,05,29,10,01,12.90
2008,05,29,10,02,13.00
2008,05,29,10,03,13.10
2008,05,29,10,04,13.20
2008,05,29,10,05,13.30
2008,05,29,10,06,13.50
2008,05,29,10,07,13.60
2008,05,29,10,08,13.60
2008,05,29,10,09,13.50
2008,05,29,10,10,13.40
2008,05,29,10,11,13.30
2008,05,29,10,12,13.30
2008,05,29,10,13,13.20
2008,05,29,10,14,13.20
2008,05,29,10,15,13.20
2008,05,29,10,16,13.20
2008,05,29,10,17,13.20
2008,05,29,10,18,13.10
2008,05,29,10,19,13.10
2008,05,29,10,20,13.20
2008,05,29,10,21,13.20
2008,05,29,10,22,13.30
2008,05,29,10,23,13.40
2008,05,29,10,24,13.70
2008,05,29,10,25,14.00
2008,05,29,10,26,14.20
2008,05,29,10,27,14.40
2008,05,29,10,28,14.60
2008,05,29,10,29,14.60
2008,05,29,10,30,14.70
2008,05,29,10,31,14.70
2008,05,29,10,32,14.60
2008,05,29,10,33,14.60
2008,05,29,10,34,14.60
2008,05,29,10,35,14.60
2008,05,29,10,36,14.60
2008,05,29,10,37,14.60
2008,05,29,10,38,14.60
2008,05,29,10,39,14.50
2008,05,29,10,40,14.50
2008,05,29,10,41,14.40
2008,05,29,10,42,14.30
2008,05,29,10,43,14.30
2008,05,29,10,44,14.20
2008,05,29,10,45,14.20
2008,05,29,10,46,14.20
2008,05,29,10,47,14.30
2008,05,29,10,48,14.40
2008,05,29,10,49,14.50
2008,05,29,10,50,14.70
2008,05,29,10,51,14.70
2008,05,29,10,52,14.70
2008,05,29,10,53,14.70
2008,05,29,10,54,14.90
2008,05,29,10,55,15.00
2008,05,29,10,56,15.00
2008,05,29,10,57,15.00
2008,05,29,10,58,15.00
2008,05,29,10,59,14.80
2008,05,29,11,00,14.60
2008,05,29,11,01,14.30
2008,05,29,11,02,14.20
2008,05,29,11,03,14.10
2008,05,29,11,04,14.00
2008,05,29,11,05,13.90
2008,05,29,11,06,13.70
2008,05,29,11,07,13.70
2008,05,29,11,08,13.70
2008,05,29,11,09,13.70
2008,05,29,11,10,13.60
2008,05,29,11,11,13.60
2008,05,29,11,12,13.70
2008,05,29,11,13,13.70
2008,05,29,11,14,13.70
2008,05,29,11,15,13.60
2008,05,29,11,16,13.50
2008,05,29,11,17,13.30
2008,05,29,11,18,13.20
2008,05,29,11,19,13.10
2008,05,29,11,20,13.10
2008,05,29,11,21,13.20
2008,05,29,11,22,13.30
2008,05,29,11,23,13.40
2008,05,29,11,24,13.60
2008,05,29,11,25,13.80
2008,05,29,11,26,13.90
2008,05,29,11,27,14.00
2008,05,29,11,28,14.00
2008,05,29,11,29,14.00
2008,05,29,11,30,14.00
2008,05,29,11,31,14.10
2008,05,29,11,32,14.10
2008,05,29,11,33,14.10
2008,05,29,11,34,14.00
2008,05,29,11,35,13.90
2008,05,29,11,36,13.90
2008,05,29,11,37,14.00
2008,05,29,11,38,14.00
2008,05,29,11,39,14.10
2008,05,29,11,40,14.20
2008,05,29,11,41,14.30
2008,05,29,11,42,14.50
2008,05,29,11,43,14.60
2008,05,29,11,44,14.70
2008,05,29,11,45,14.80
2008,05,29,11,46,15.00
2008,05,29,11,47,15.00
2008,05,29,11,48,15.00
2008,05,29,11,49,14.80
2008,05,29,11,50,14.60
2008,05,29,11,51,14.60
2008,05,29,11,52,14.70
2008,05,29,11,53,14.80
2008,05,29,11,54,14.70
2008,05,29,11,55,14.70
2008,05,29,11,56,14.60
2008,05,29,11,57,14.70
2008,05,29,11,58,14.90
2008,05,29,11,59,15.10
2008,05,29,12,00,15.40
2008,05,29,12,01,15.60
2008,05,29,12,02,15.50
2008,05,29,12,03,15.30
2008,05,29,12,04,15.10
2008,05,29,12,05,15.00
2008,05,29,12,06,15.00
2008,05,29,12,07,15.00
2008,05,29,12,08,15.00
2008,05,29,12,09,15.10
2008,05,29,12,10,15.30
2008,05,29,12,11,15.30
2008,05,29,12,12,15.30
2008,05,29,12,13,15.40
2008,05,29,12,14,15.40
2008,05,29,12,15,15.30
2008,05,29,12,16,15.20
2008,05,29,12,17,15.00
2008,05,29,12,18,15.00
2008,05,29,12,19,15.00
2008,05,29,12,20,15.00
2008,05,29,12,21,15.00
2008,05,29,12,22,15.00
2008,05,29,12,23,15.10
2008,05,29,12,24,15.20
2008,05,29,12,25,15.00
2008,05,29,12,26,15.00
2008,05,29,12,27,14.80
2008,05,29,12,28,14.80
2008,05,29,12,29,14.80
2008,05,29,12,30,14.90
2008,05,29,12,31,15.00
2008,05,29,12,32,15.00
2008,05,29,12,33,15.00
2008,05,29,12,34,15.00
2008,05,29,12,35,15.00
2008,05,29,12,36,15.20
2008,05,29,12,37,15.40
2008,05,29,12,38,15.60
2008,05,29,12,39,15.80
2008,05,29,12,40,15.90
2008,05,29,12,41,15.90
2008,05,29,12,42,15.80
2008,05,29,12,43,15.80
2008,05,29,12,44,15.80
2008,05,29,12,45,15.60
2008,05,29,12,46,15.40
2008,05,29,12,47,15.20
2008,05,29,12,48,15.20
2008,05,29,12,49,15.20
2008,05,29,12,50,15.30
2008,05,29,12,51,15.30
2008,05,29,12,52,15.30
2008,05,29,12,53,15.30
2008,05,29,12,54,15.40
2008,05,29,12,55,15.60
2008,05,29,12,56,15.80
2008,05,29,12,57,16.00
2008,05,29,12,58,16.10
2008,05,29,12,59,16.30
2008,05,29,13,00,16.30
2008,05,29,13,01,16.20
2008,05,29,13,02,16.20
2008,05,29,13,03,16.20
2008,05,29,13,04,16.20
2008,05,29,13,05,16.20
2008,05,29,13,06,16.40
2008,05,29,13,07,16.30
2008,05,29,13,08,16.10
2008,05,29,13,09,16.10
2008,05,29,13,10,16.00
2008,05,29,13,11,15.90
2008,05,29,13,12,15.90
2008,05,29,13,13,15.90
2008,05,29,13,14,16.00
2008,05,29,13,15,16.30
2008,05,29,13,16,16.60
2008,05,29,13,17,16.70
2008,05,29,13,18,16.70
2008,05,29,13,19,16.70
2008,05,29,13,20,16.70
2008,05,29,13,21,16.60
2008,05,29,13,22,16.60
2008,05,29,13,23,16.60
2008,05,29,13,24,16.50
2008,05,29,13,25,16.40
2008,05,29,13,26,16.40
2008,05,29,13,27,16.30
2008,05,29,13,28,16.30
2008,05,29,13,29,16.10
2008,05,29,13,30,16.00
2008,05,29,13,31,16.00
2008,05,29,13,32,16.10
2008,05,29,13,33,16.20
2008,05,29,13,34,16.20
2008,05,29,13,35,16.30
2008,05,29,13,36,16.30
2008,05,29,13,37,16.40
2008,05,29,13,38,16.50
2008,05,29,13,39,16.50
2008,05,29,13,40,16.60
2008,05,29,13,41,16.70
2008,05,29,13,42,16.70
2008,05,29,13,43,16.60
2008,05,29,13,44,16.60
2008,05,29,13,45,16.60
2008,05,29,13,46,16.50
2008,05,29,13,47,16.60
2008,05,29,13,48,16.60
2008,05,29,13,49,16.60
2008,05,29,13,50,16.60
2008,05,29,13,51,16.70
2008,05,29,13,52,16.60
2008,05,29,13,53,16.60
2008,05,29,13,54,16.70
2008,05,29,13,55,16.70
2008,05,29,13,56,16.60
2008,05,29,13,57,16.60
2008,05,29,13,58,16.60
2008,05,29,13,59,16.70
2008,05,29,14,00,16.80
2008,05,29,14,01,16.80
2008,05,29,14,02,16.80
2008,05,29,14,03,16.80
2008,05,29,14,04,16.80
2008,05,29,14,05,16.80
2008,05,29,14,06,16.70
2008,05,29,14,07,16.70
2008,05,29,14,08,16.80
2008,05,29,14,09,16.70
2008,05,29,14,10,16.70
2008,05,29,14,11,16.80
2008,05,29,14,12,16.90
2008,05,29,14,13,17.10
2008,05,29,14,14,17.20
2008,05,29,14,15,17.20
2008,05,29,14,16,17.20
2008,05,29,14,17,17.10
2008,05,29,14,18,17.00
2008,05,29,14,19,17.00
2008,05,29,14,20,16.90
2008,05,29,14,21,16.90
2008,05,29,14,22,17.00
2008,05,29,14,23,17.00
2008,05,29,14,24,16.90
2008,05,29,14,25,17.00
2008,05,29,14,26,17.10
2008,05,29,14,27,17.10
2008,05,29,14,28,17.30
2008,05,29,14,29,17.30
2008,05,29,14,30,17.30
2008,05,29,14,31,17.40
2008,05,29,14,32,17.40
2008,05,29,14,33,17.30
2008,05,29,14,34,17.30
2008,05,29,14,35,17.20
2008,05,29,14,36,17.10
2008,05,29,14,37,16.90
2008,05,29,14,38,16.70
2008,05,29,14,39,16.70
2008,05,29,14,40,16.70
2008,05,29,14,41,16.60
2008,05,29,14,42,16.70
2008,05,29,14,43,16.70
2008,05,29,14,44,16.80
2008,05,29,14,45,16.90
2008,05,29,14,46,16.80
2008,05,29,14,47,16.70
2008,05,29,14,48,16.70
2008,05,29,14,49,16.70
2008,05,29,14,50,16.70
2008,05,29,14,51,16.60
2008,05,29,14,52,16.60
2008,05,29,14,53,16.50
2008,05,29,14,54,16.50
2008,05,29,14,55,16.60
2008,05,29,14,56,16.60
2008,05,29,14,57,16.70
2008,05,29,14,58,16.70
2008,05,29,14,59,16.70
2008,05,29,15,00,16.70
2008,05,29,15,01,16.70
2008,05,29,15,02,16.70
2008,05,29,15,03,16.70
2008,05,29,15,04,16.70
2008,05,29,15,05,16.80
2008,05,29,15,06,16.70
2008,05,29,15,07,16.60
2008,05,29,15,08,16.60
2008,05,29,15,09,16.70
2008,05,29,15,10,16.70
2008,05,29,15,11,16.70
2008,05,29,15,12,16.70
2008,05,29,15,13,16.70
2008,05,29,15,14,16.70
2008,05,29,15,15,16.70
2008,05,29,15,16,16.70
2008,05,29,15,17,16.70
2008,05,29,15,18,16.70
2008,05,29,15,19,16.70
2008,05,29,15,20,16.70
2008,05,29,15,21,16.80
2008,05,29,15,22,16.90
2008,05,29,15,23,16.90
2008,05,29,15,24,16.80
2008,05,29,15,25,16.80
2008,05,29,15,26,16.90
2008,05,29,15,27,16.90
2008,05,29,15,28,17.00
2008,05,29,15,29,17.20
2008,05,29,15,30,17.20
2008,05,29,15,31,17.20
2008,05,29,15,32,17.20
2008,05,29,15,33,17.20
2008,05,29,15,34,17.20
2008,05,29,15,35,17.30
2008,05,29,15,36,17.30
2008,05,29,15,37,17.30
2008,05,29,15,38,17.30
2008,05,29,15,39,17.20
2008,05,29,15,40,17.00
2008,05,29,15,41,16.90
2008,05,29,15,42,16.80
2008,05,29,15,43,16.80
2008,05,29,15,44,16.80
2008,05,29,15,45,16.80
2008,05,29,15,46,16.80
2008,05,29,15,47,16.90
2008,05,29,15,48,16.90
2008,05,29,15,49,16.80
2008,05,29,15,50,16.90
2008,05,29,15,51,16.90
2008,05,29,15,52,17.00
2008,05,29,15,53,17.00
2008,05,29,15,54,17.00
2008,05,29,15,55,17.10
2008,05,29,15,56,17.10
2008,05,29,15,57,17.00
2008,05,29,15,58,17.00
2008,05,29,15,59,17.10
2008,05,29,16,00,17.10
2008,05,29,16,01,17.10
2008,05,29,16,02,17.20
2008,05,29,16,03,17.30
2008,05,29,16,04,17.40
2008,05,29,16,05,17.40
2008,05,29,16,06,17.40
2008,05,29,16,07,17.40
2008,05,29,16,08,17.40
2008,05,29,16,09,17.20
2008,05,29,16,10,17.20
2008,05,29,16,11,17.30
2008,05,29,16,12,17.30
2008,05,29,16,13,17.50
2008,05,29,16,14,17.40
2008,05,29,16,15,17.30
2008,05,29,16,16,17.10
2008,05,29,16,17,17.10
2008,05,29,16,18,17.10
2008,05,29,16,19,17.00
2008,05,29,16,20,16.90
2008,05,29,16,21,16.90
2008,05,29,16,22,16.90
2008,05,29,16,23,17.00
2008,05,29,16,24,17.10
2008,05,29,16,25,17.10
2008,05,29,16,26,17.00
2008,05,29,16,27,16.90
2008,05,29,16,28,16.90
2008,05,29,16,29,17.00
2008,05,29,16,30,17.10
2008,05,29,16,31,17.20
2008,05,29,16,32,17.10
2008,05,29,16,33,17.00
2008,05,29,16,34,17.00
2008,05,29,16,35,16.90
2008,05,29,16,36,16.80
2008,05,29,16,37,16.80
2008,05,29,16,38,16.80
2008,05,29,16,39,16.80
2008,05,29,16,40,16.70
2008,05,29,16,41,16.70
2008,05,29,16,42,16.70
2008,05,29,16,43,16.70
2008,05,29,16,44,16.70
2008,05,29,16,45,16.70
2008,05,29,16,46,16.70
2008,05,29,16,47,16.60
2008,05,29,16,48,16.70
2008,05,29,16,49,16.60
2008,05,29,16,50,16.70
2008,05,29,16,51,16.60
2008,05,29,16,52,16.60
2008,05,29,16,53,16.50
2008,05,29,16,54,16.60
2008,05,29,16,55,16.80
2008,05,29,16,56,16.70
2008,05,29,16,57,16.70
2008,05,29,16,58,16.70
2008,05,29,16,59,16.60
2008,05,29,17,00,16.50
2008,05,29,17,01,16.40
2008,05,29,17,02,16.30
2008,05,29,17,03,16.30
2008,05,29,17,04,16.30
2008,05,29,17,05,16.20
2008,05,29,17,06,16.20
2008,05,29,17,07,16.20
2008,05,29,17,08,16.20
2008,05,29,17,09,16.30
2008,05,29,17,10,16.40
2008,05,29,17,11,16.40
2008,05,29,17,12,16.40
2008,05,29,17,13,16.40
2008,05,29,17,14,16.50
2008,05,29,17,15,16.50
2008,05,29,17,16,16.30
2008,05,29,17,17,16.10
2008,05,29,17,18,16.00
2008,05,29,17,19,16.00
2008,05,29,17,20,16.10
2008,05,29,17,21,16.10
2008,05,29,17,22,16.10
2008,05,29,17,23,16.10
2008,05,29,17,24,16.10
2008,05,29,17,25,16.20
2008,05,29,17,26,16.20
2008,05,29,17,27,16.20
2008,05,29,17,28,16.20
2008,05,29,17,29,16.20
2008,05,29,17,30,16.20
2008,05,29,17,31,16.10
2008,05,29,17,32,16.00
2008,05,29,17,33,16.00
2008,05,29,17,34,16.00